Location: Goodsell Observatory
(44.4617°N, 93.1522°W)
Time: 12:53:33
(UTC-05:00)

Daily predictions for brighter satellites

Satellite Brightness Start Highest point End
(mag) Time Altitude Azimuth Time Altitude Azimuth Time Altitude Azimuth
Cosmos 1452 Rocket 3.7 21:04:44 10° S 21:09:51 54° ESE 21:15:00 10° NNE
BREEZE-M DEB (TANK) 1.8 21:09:54 10° WSW 21:12:08 54° NNW 21:14:17 10° ENE
Cosmos 1238 Rocket 3.3 21:09:15 10° NNE 21:12:21 34° E 21:15:56 10° SSE
Cosmos 1862 3.8 21:08:34 10° SSE 21:12:23 40° E 21:16:14 10° NNE
Cosmos 1892 3.8 21:09:46 10° SSW 21:13:30 49° WNW 21:17:17 10° N
Cosmos 2341 Rocket 4.4 21:08:30 10° SSE 21:14:24 43° E 21:20:15 10° NNE
CENTAUR R/B 4.4 21:08:03 10° NW 21:15:07 37° WSW 21:22:30 10° S
H-2A R/B 4.2 21:13:47 10° ENE 21:15:42 12° NE 21:17:37 10° NE
Cosmos 1184 Rocket 3.7 21:15:14 10° SSE 21:18:10 30° E 21:21:09 10° NNE
deb Chang Zheng 4 4.1 21:15:19 10° NNE 21:19:29 39° E 21:23:40 10° S
SPOT 5 3.7 21:15:00 10° SE 21:19:58 42° ENE 21:25:00 10° N
Meteor 1-27 Rocket 3.7 21:19:04 10° N 21:24:40 82° E 21:30:10 10° SSE
Cosmos 1242 Rocket 3.4 21:24:41 10° N 21:28:06 34° ENE 21:31:23 11° SE
Timation 2 Rocket 4.1 21:22:18 10° NNW 21:28:15 60° ENE 21:34:07 10° SE
Elektron 3 4.2 21:25:34 10° NW 21:28:24 57° NE 21:31:54 11° SE
ATLAS 5 CENTAUR R/B 4.3 21:26:49 10° WNW 21:31:42 25° WSW 21:36:48 10° SSW
ARGOS 4.2 21:27:52 10° ESE 21:32:24 29° ENE 21:36:56 10° N
Cosmos 1782 4.0 21:30:45 10° NNW 21:34:36 44° W 21:38:26 10° SSW
H-2A R/B 2.0 21:30:26 10° SSE 21:34:42 72° ENE 21:38:53 10° N
YAOGAN 6 3.6 21:33:23 12° SE 21:36:09 30° ENE 21:39:18 10° N
Cosmos 2154 Rocket 4.0 21:31:27 10° S 21:37:39 82° E 21:43:52 10° N
Cosmos 1408 2.5 21:34:41 10° S 21:38:19 70° E 21:41:57 10° NNE
Cosmos 1850 Rocket 4.3 21:34:46 10° NNW 21:40:02 58° ENE 21:44:49 13° SE
Cosmos 489 Rocket 4.5 21:36:35 10° NNW 21:42:49 84° ENE 21:49:02 10° SSE
COS B Rocket 3.1 21:39:44 10° N 21:43:47 85° E 21:47:20 10° S
USA 229 DEB 4.1 21:37:02 10° NNW 21:44:01 57° NE 21:50:15 14° ESE
USA 229 4.1 21:37:08 10° NNW 21:44:07 56° NE 21:50:21 14° ESE
Cosmos 1954 Rocket 4.3 21:39:48 10° NNW 21:44:59 67° WSW 21:50:10 10° S
Okean 3 3.4 21:41:04 10° N 21:45:22 85° E 21:49:37 10° S
Cosmos 1825 2.5 21:51:54 10° SSW 21:55:42 69° W 21:59:32 10° N
Cosmos 1939 Rocket 3.6 21:52:49 10° S 21:56:37 50° W 22:00:28 10° NNW
Cosmos 1833 Rocket 3.1 21:51:44 10° NNW 21:57:12 49° ENE 22:01:16 17° SE
MetOp-A 4.1 21:52:12 12° SSE 21:57:13 75° ENE 22:02:35 10° N
Cosmos 1741 Rocket 4.0 21:56:26 10° NNW 22:01:42 84° ENE 22:05:52 16° SSE
Cosmos 1844 Rocket 4.3 21:57:18 10° SW 22:02:35 39° NW 22:07:51 10° NNE
Cosmos 2366 rocket 4.4 21:57:17 12° SSE 22:02:44 44° E 22:08:42 10° NNE
SL-8 R/B 4.4 21:59:22 10° W 22:04:06 53° N 22:08:50 10° ENE
Cosmos 2278 Rocket 2.5 21:59:03 10° SSW 22:04:43 72° WNW 22:10:25 10° NNE
CZ-4 R/B 4.5 22:04:52 10° NNE 22:09:05 33° E 22:11:23 21° SE
Okean 2 Rocket 3.2 22:06:32 10° SSW 22:10:58 79° W 22:15:23 10° N
PSLV R/B 3.2 22:11:01 21° S 22:12:46 69° WSW 22:15:43 10° NNW
CZ-4 SHROUD 3.4 22:14:23 22° S 22:16:13 68° WSW 22:19:19 10° NNW
Envisat 4.0 22:13:08 10° S 22:17:58 44° W 22:22:50 10° NNW
Cosmos 1782 Rocket 4.3 22:14:16 10° SSW 22:18:38 54° WNW 22:23:03 10° N
UNK 4.4 22:13:54 10° NNE 22:20:08 76° ESE 22:26:02 10° S
Cosmos 614 Rocket 4.1 22:16:14 10° NNW 22:21:19 72° WSW 22:24:52 20° S
Cosmos 2082 Rocket 2.2 22:17:21 10° NNW 22:23:06 88° WSW 22:26:48 23° SSE
SL-08 RB Rocket 3.8 22:21:37 25° SSE 22:24:13 64° ENE 22:28:51 10° N
OAO 3 Rocket 4.3 22:21:20 10° SW 22:25:21 25° S 22:25:52 24° SSE
Cosmos 1812 3.4 22:22:29 10° N 22:26:08 38° ENE 22:27:16 30° ESE
Landsat 7 4.2 22:23:53 26° SE 22:26:15 48° ENE 22:30:50 10° N
Meteor 1-18 Rocket 4.3 22:24:02 10° N 22:29:57 71° ENE 22:33:37 24° SSE
Cosmos 1975 Rocket 4.4 22:27:34 10° NNW 22:31:32 36° W 22:35:30 10° SSW
APEX 4.2 22:28:22 10° SW 22:32:27 62° WNW 22:37:50 10° NNE
Cosmos 2218 Rocket 4.0 22:26:43 10° S 22:33:07 86° E 22:39:33 10° N
CARTOSAT-1 4.3 22:32:45 29° ESE 22:34:17 39° ENE 22:38:19 10° N
AVUM R/B 3.3 22:31:58 10° NNW 22:35:31 87° ENE 22:36:29 45° SSE
Meteor 1-14 Rocket 4.3 22:32:01 10° SSW 22:37:41 79° W 22:43:17 10° N
BREEZE-M TANK 3.5 22:25:45 10° W 22:39:25 83° N 22:42:07 20° E
ISS -1.6 22:38:24 10° W 22:41:26 35° NNW 22:44:29 10° NE
Terra 2.2 22:40:06 31° SE 22:41:57 48° ENE 22:46:32 10° N
Cosmos 2297 4.0 22:36:36 10° SSW 22:42:17 70° WNW 22:48:02 10° NNE
USA 234 4.0 22:37:34 10° ENE 22:43:04 28° SE 22:43:56 27° SE
Cosmos 1536 Rocket 3.6 22:40:05 10° N 22:44:36 84° W 22:46:41 31° S
Cosmos 1727 Rocket 3.9 22:38:46 10° N 22:44:59 87° E 22:48:47 25° S
CZ-4B R/B 3.4 22:40:21 10° NNE 22:45:19 83° WNW 22:49:14 16° SSW
Meteor 2-8 Rocket 4.4 22:39:48 10° N 22:46:00 89° ENE 22:49:45 26° S
Intercosmos 25 4.5 22:42:52 10° SW 22:46:00 34° WNW 22:48:57 10° N
NOAA 11 4.4 22:43:03 23° S 22:46:33 72° WSW 22:52:05 10° NNW
DELTA 2 DEB (DPAF) 4.1 22:45:28 37° SSE 22:47:12 73° ENE 22:51:40 10° N
H-2A R/B 2.1 22:51:50 34° SSE 22:54:16 75° ENE 22:59:33 10° N
Lacrosse 5 rocket 2.5 22:57:31 25° ENE 22:57:31 25° ENE 22:59:19 10° ENE
Spot 4 4.1 22:58:36 39° SE 23:00:06 55° ENE 23:04:51 10° N
IGS 5A 3.5 23:01:46 51° SE 23:02:38 68° ENE 23:06:48 10° N
Meteor 1-11 Rocket 4.3 23:01:36 35° SE 23:03:12 43° E 23:08:35 10° NNE
Cosmos 1633 4.4 23:09:39 21° ENE 23:09:39 21° ENE 23:11:40 10° NE
Cosmos 1302 Rocket 4.1 23:09:42 44° SSE 23:10:55 54° ESE 23:16:05 10° NNE
Cosmos 2369 Rocket 3.1 23:11:23 30° ESE 23:11:23 30° ESE 23:16:09 10° NE
Lacrosse 5 1.9 23:10:53 45° SSE 23:11:49 52° SE 23:16:46 10° NE
ARGOS 4.1 23:09:19 21° SSW 23:12:27 41° W 23:17:32 10° NNW
Gbstr 26 Del rocket 3.0 23:08:22 10° WNW 23:13:27 83° SSW 23:14:15 59° SE
Cosmos 1025 Rocket 3.6 23:10:54 10° N 23:15:05 41° ENE 23:15:28 40° E
CZ-4C R/B 3.8 23:14:35 44° SSW 23:15:30 55° W 23:19:37 10° NNW
Cosmos 1821 Rocket 4.2 23:17:02 39° SE 23:18:55 52° E 23:24:55 10° NNE
Cosmos 1400 Rocket 3.3 23:25:09 48° ENE 23:25:09 48° ENE 23:28:50 10° NNE
Meteor 2-21 4.5 23:24:49 43° SSE 23:26:49 66° E 23:32:59 10° NNE
BREEZE-M DEB (TANK) 4.3 23:21:10 10° WNW 23:27:21 23° WSW 23:28:16 22° SW
Cosmos 1300 Rocket 3.8 23:26:14 43° SW 23:27:33 65° W 23:32:00 10° N
Cosmos 1934 Rocket 4.2 23:26:34 42° SE 23:27:57 50° E 23:33:48 10° NNE
Cosmos 1536 3.5 23:28:54 40° ENE 23:28:54 40° ENE 23:32:05 10° NNE
ASTEX 1 3.3 23:24:53 10° N 23:29:52 89° E 23:31:05 53° S
Meteor 1-19 Rocket 4.2 23:24:32 10° N 23:30:25 74° ENE 23:31:59 49° SSE
Iridium 4 Rocket 3.9 23:24:51 10° N 23:30:43 61° E 23:32:10 47° SE
Cosmos 2285 Rocket 4.3 23:29:54 43° SE 23:31:09 49° ESE 23:37:16 10° NNE
Cosmos 1809 Rocket 4.4 23:29:36 44° SSE 23:31:39 73° E 23:37:50 10° NNE
Okean 1 Rocket 3.4 23:33:27 46° SW 23:34:34 64° W 23:39:01 10° N
Cosmos 2123 Rocket 4.2 23:29:11 10° N 23:35:20 55° ENE 23:36:59 43° SE
ALOS 2 4.3 23:35:44 20° ENE 23:36:10 21° ENE 23:39:25 10° NNE
SAR-Lupe-2 3.9 23:37:30 63° WNW 23:37:30 63° WNW 23:40:45 10° NNW
Cosmos 1943 Rocket 3.7 23:40:42 20° E 23:40:42 20° E 23:43:47 10° NE
Cosmos 1833 Rocket 4.2 23:36:13 10° NW 23:40:49 26° WSW 23:42:58 21° SW
SL-8 R/B 3.9 23:42:16 10° WNW 23:47:05 68° NNE 23:48:18 47° E
Okean 1-7 Rocket 4.4 23:45:41 10° NNW 23:49:55 42° W 23:50:37 38° WSW
Cosmos 1503 Rocket 3.9 23:45:33 10° NNW 23:50:49 90° W 23:51:35 67° SSE
CZ-4B R/B 3.9 23:57:07 14° NE 23:57:07 14° NE 23:58:07 10° NNE
